sat.trackr.live / text

‹ back to catalog

STARLINK-34162

NORAD 64018 · 2025-101AA

PAYLOAD ACTIVE UNKNOWN

§ Identity

Operator
Country
US
Launch date
2025-05-14
Launch site
AFETR
Launch vehicle
Mass (kg)
RCS (m²)

Purposes: comms

External: N2YO · Heavens-Above · Gunter

§ Orbital elements

Epoch: 2026-05-25T04:00:03.998880Z

Period
94.27 min
Inclination
43.0025°
Eccentricity
0.0001791
Mean motion
15.27582715 rev/d
Perigee alt
481.8 km
Apogee alt
484.3 km
Semi-major
6,861.2 km
B*
-2.8043e-4
RAAN
286.0872°
Arg perigee
264.7203°
Mean anomaly
1.4122°
Rev number
569

§ Raw data

STARLINK-341621 64018U 25101AA  26145.16671295 -.00007972  00000+0 -28043-3 0  99992 64018  43.0025 286.0872 0001791 264.7203   1.4122 15.27582715  5693

JSON: /api/v1/satellites/64018 · /tle

For live sub-satellite position, see the globe view (requires WebGL).

§ Visibility from observer

Set your observer location to see the next 7 days of passes ≥ 10°. The values pass through the URL so the page stays shareable.

No JS? Fill the form by hand. The geolocation button needs JavaScript.